When you browse on this site, cookies collect data to enhance your experience and personalize the content and advertising you see.
Visit our Privacy Policy to learn more. By continuing to use the site, you agree to this use of cookies and data.
  • en Suisse
  • Liste des pays
  • À 7 jours
  • Température de l'eau
  • Carte satellitaire
  • Carte météo
  • Widgets météo
  • user-avatar
    Se connecter

    Météo par heure à Xiulin

    Ce jour, 24 Juillet, Mercredi

    Heure Température Précipitation Vent Pression Humidité
    00:00 +29°C° 0.8 mm 2 m/s 748 mmHg 86%
    01:00 +29°C° 0 mm 2 m/s 748 mmHg 86%
    02:00 +28°C° 0.1 mm 2 m/s 748 mmHg 87%
    03:00 +28°C° 0.1 mm 1 m/s 748 mmHg 88%
    04:00 +28°C° 0.1 mm 1 m/s 748 mmHg 89%
    05:00 +28°C° 0 mm 1 m/s 748 mmHg 87%
    06:00 +29°C° 0 mm 1 m/s 748 mmHg 86%
    07:00 +30°C° 0 mm 1 m/s 749 mmHg 84%
    08:00 +31°C° 0 mm 1 m/s 749 mmHg 79%
    09:00 +33°C° 0 mm 1 m/s 749 mmHg 75%
    10:00 +35°C° 0 mm 2 m/s 749 mmHg 71%
    11:00 +36°C° 0.1 mm 2 m/s 748 mmHg 68%
    12:00 +36°C° 0.1 mm 2 m/s 748 mmHg 65%
    13:00 +37°C° 0.1 mm 3 m/s 748 mmHg 62%
    14:00 +37°C° 0.1 mm 3 m/s 747 mmHg 63%
    15:00 +37°C° 0.1 mm 3 m/s 747 mmHg 64%
    16:00 +37°C° 0.1 mm 3 m/s 747 mmHg 66%
    17:00 +36°C° 0 mm 3 m/s 747 mmHg 69%
    18:00 +34°C° 0 mm 3 m/s 747 mmHg 72%
    19:00 +32°C° 0 mm 2 m/s 748 mmHg 75%
    20:00 +31°C° 0 mm 2 m/s 748 mmHg 76%
    21:00 +31°C° 0 mm 3 m/s 749 mmHg 76%
    22:00 +31°C° 0 mm 3 m/s 749 mmHg 77%
    23:00 +30°C° 0 mm 3 m/s 749 mmHg 78%

    Demain, 25 Juillet, Jeudi

    Heure Température Précipitation Vent Pression Humidité
    00:00 +30°C° 0 mm 3 m/s 749 mmHg 79%
    01:00 +30°C° 0 mm 3 m/s 749 mmHg 80%
    02:00 +29°C° 0 mm 3 m/s 748 mmHg 81%
    03:00 +29°C° 0 mm 3 m/s 748 mmHg 81%
    04:00 +29°C° 0 mm 4 m/s 748 mmHg 82%
    05:00 +30°C° 0 mm 4 m/s 749 mmHg 82%
    06:00 +30°C° 0 mm 4 m/s 749 mmHg 81%
    07:00 +32°C° 0 mm 5 m/s 749 mmHg 81%
    08:00 +33°C° 0 mm 5 m/s 749 mmHg 76%
    09:00 +35°C° 0 mm 5 m/s 749 mmHg 72%
    10:00 +36°C° 0 mm 5 m/s 749 mmHg 67%
    11:00 +37°C° 0 mm 5 m/s 749 mmHg 65%
    12:00 +39°C° 0 mm 5 m/s 748 mmHg 63%
    13:00 +39°C° 0 mm 5 m/s 748 mmHg 61%
    14:00 +38°C° 0 mm 4 m/s 747 mmHg 62%
    15:00 +38°C° 0 mm 4 m/s 747 mmHg 64%
    16:00 +38°C° 0 mm 3 m/s 746 mmHg 65%
    17:00 +37°C° 0.1 mm 4 m/s 747 mmHg 69%
    18:00 +35°C° 0.1 mm 4 m/s 747 mmHg 74%
    19:00 +34°C° 0.1 mm 4 m/s 747 mmHg 78%
    20:00 +33°C° 0 mm 4 m/s 748 mmHg 78%
    21:00 +33°C° 0 mm 4 m/s 748 mmHg 78%
    22:00 +32°C° 0 mm 4 m/s 748 mmHg 77%
    23:00 +32°C° 0 mm 4 m/s 748 mmHg 78%

    Après-demain, 26 Juillet, Vendredi

    Heure Température Précipitation Vent Pression Humidité
    00:00 +30°C° 0 mm 4 m/s 747 mmHg 79%
    01:00 +30°C° 0 mm 4 m/s 747 mmHg 80%
    02:00 +30°C° 0 mm 4 m/s 747 mmHg 81%
    03:00 +30°C° 0 mm 4 m/s 747 mmHg 81%
    04:00 +30°C° 0 mm 4 m/s 747 mmHg 81%
    05:00 +30°C° 0 mm 5 m/s 747 mmHg 81%
    06:00 +32°C° 0 mm 5 m/s 747 mmHg 81%
    07:00 +32°C° 0 mm 6 m/s 747 mmHg 81%
    08:00 +34°C° 0 mm 6 m/s 748 mmHg 76%
    09:00 +35°C° 0 mm 7 m/s 748 mmHg 71%
    10:00 +38°C° 0 mm 7 m/s 748 mmHg 66%
    11:00 +38°C° 0 mm 7 m/s 747 mmHg 64%
    12:00 +39°C° 0 mm 7 m/s 746 mmHg 62%
    13:00 +39°C° 0 mm 7 m/s 746 mmHg 60%
    14:00 +39°C° 0 mm 6 m/s 745 mmHg 62%
    15:00 +39°C° 0 mm 5 m/s 745 mmHg 63%
    16:00 +40°C° 0 mm 4 m/s 745 mmHg 65%
    17:00 +37°C° 0 mm 4 m/s 745 mmHg 67%
    18:00 +36°C° 0 mm 4 m/s 745 mmHg 68%
    19:00 +34°C° 0 mm 4 m/s 745 mmHg 70%
    20:00 +34°C° 0 mm 4 m/s 745 mmHg 71%
    21:00 +34°C° 0 mm 5 m/s 746 mmHg 72%
    22:00 +33°C° 0 mm 5 m/s 746 mmHg 73%
    23:00 +33°C° 0 mm 5 m/s 746 mmHg 74%

    27 Juillet, Samedi

    Heure Température Précipitation Vent Pression Humidité
    00:00 +32°C° 0 mm 5 m/s 746 mmHg 74%
    01:00 +32°C° 0 mm 4 m/s 745 mmHg 75%
    02:00 +32°C° 0 mm 4 m/s 745 mmHg 75%
    03:00 +32°C° 0 mm 4 m/s 745 mmHg 76%
    04:00 +30°C° 0 mm 4 m/s 745 mmHg 77%
    05:00 +32°C° 0 mm 5 m/s 746 mmHg 77%
    06:00 +32°C° 0 mm 5 m/s 746 mmHg 77%
    07:00 +33°C° 0 mm 6 m/s 746 mmHg 77%
    08:00 +34°C° 0 mm 7 m/s 747 mmHg 73%
    09:00 +35°C° 0 mm 7 m/s 747 mmHg 69%
    10:00 +37°C° 0 mm 8 m/s 747 mmHg 65%
    11:00 +38°C° 0 mm 8 m/s 746 mmHg 63%
    12:00 +39°C° 0 mm 7 m/s 746 mmHg 61%
    13:00 +39°C° 0 mm 7 m/s 745 mmHg 59%
    14:00 +39°C° 0 mm 6 m/s 745 mmHg 60%
    15:00 +39°C° 0 mm 5 m/s 745 mmHg 62%
    16:00 +38°C° 0 mm 4 m/s 745 mmHg 63%
    17:00 +37°C° 0 mm 5 m/s 745 mmHg 66%
    18:00 +35°C° 0 mm 5 m/s 745 mmHg 68%
    19:00 +34°C° 0 mm 5 m/s 746 mmHg 70%
    20:00 +34°C° 0 mm 5 m/s 746 mmHg 69%
    21:00 +34°C° 0 mm 6 m/s 747 mmHg 68%
    22:00 +34°C° 0 mm 6 m/s 747 mmHg 67%
    23:00 +33°C° 0 mm 6 m/s 747 mmHg 69%

    28 Juillet, Dimanche

    Heure Température Précipitation Vent Pression Humidité
    00:00 +33°C° 0 mm 5 m/s 746 mmHg 70%
    01:00 +32°C° 0 mm 5 m/s 746 mmHg 72%
    02:00 +32°C° 0 mm 5 m/s 746 mmHg 73%
    03:00 +32°C° 0 mm 5 m/s 746 mmHg 75%
    04:00 +30°C° 0 mm 5 m/s 746 mmHg 76%
    05:00 +32°C° 0 mm 5 m/s 747 mmHg 76%
    06:00 +32°C° 0 mm 6 m/s 747 mmHg 76%
    07:00 +33°C° 0 mm 6 m/s 748 mmHg 76%
    08:00 +34°C° 0 mm 7 m/s 748 mmHg 72%
    09:00 +35°C° 0 mm 8 m/s 748 mmHg 68%
    10:00 +38°C° 0 mm 8 m/s 748 mmHg 64%
    11:00 +38°C° 0 mm 8 m/s 747 mmHg 62%
    12:00 +39°C° 0 mm 8 m/s 747 mmHg 59%
    13:00 +40°C° 0 mm 7 m/s 747 mmHg 57%
    14:00 +40°C° 0 mm 6 m/s 746 mmHg 58%
    15:00 +40°C° 0 mm 6 m/s 746 mmHg 60%
    16:00 +39°C° 0 mm 5 m/s 746 mmHg 62%
    17:00 +37°C° 0 mm 5 m/s 746 mmHg 64%
    18:00 +36°C° 0 mm 5 m/s 746 mmHg 66%
    19:00 +35°C° 0 mm 6 m/s 746 mmHg 68%
    20:00 +34°C° 0 mm 6 m/s 747 mmHg 67%
    21:00 +34°C° 0 mm 6 m/s 747 mmHg 66%
    22:00 +34°C° 0 mm 5 m/s 747 mmHg 66%
    23:00 +33°C° 0 mm 5 m/s 747 mmHg 68%

    29 Juillet, Lundi

    Heure Température Précipitation Vent Pression Humidité
    00:00 +33°C° 0 mm 5 m/s 747 mmHg 70%
    01:00 +32°C° 0 mm 5 m/s 747 mmHg 72%
    02:00 +32°C° 0 mm 5 m/s 747 mmHg 71%
    03:00 +32°C° 0 mm 5 m/s 747 mmHg 71%
    04:00 +32°C° 0 mm 5 m/s 747 mmHg 70%
    05:00 +32°C° 0 mm 6 m/s 748 mmHg 72%
    06:00 +32°C° 0 mm 6 m/s 748 mmHg 74%
    07:00 +33°C° 0 mm 6 m/s 748 mmHg 76%
    08:00 +34°C° 0 mm 7 m/s 748 mmHg 71%
    09:00 +35°C° 0 mm 8 m/s 748 mmHg 67%
    10:00 +38°C° 0 mm 8 m/s 748 mmHg 62%
    11:00 +38°C° 0 mm 8 m/s 748 mmHg 60%
    12:00 +39°C° 0 mm 8 m/s 748 mmHg 57%
    13:00 +40°C° 0 mm 8 m/s 747 mmHg 55%
    14:00 +40°C° 0 mm 6 m/s 747 mmHg 57%
    15:00 +40°C° 0 mm 5 m/s 746 mmHg 59%
    16:00 +40°C° 0 mm 4 m/s 746 mmHg 61%
    17:00 +37°C° 0 mm 4 m/s 746 mmHg 63%
    18:00 +36°C° 0 mm 5 m/s 746 mmHg 66%
    19:00 +34°C° 0 mm 5 m/s 747 mmHg 68%
    20:00 +34°C° 0 mm 5 m/s 747 mmHg 69%
    21:00 +34°C° 0 mm 5 m/s 747 mmHg 70%
    22:00 +33°C° 0 mm 5 m/s 748 mmHg 70%
    23:00 +33°C° 0 mm 5 m/s 747 mmHg 70%
    Voir plus